Flag for USA

Past Weather in 43°11'25"N, 78°39'15"W, USA — Yesterday and Last 2 Weeks

Now
53 °F

Scattered clouds.


Feels Like: 47 °F
Forecast: 62 / 44 °F
Wind: 23 mph from Southwest

Location: Greater Buffalo International Airport

Current Time: Mar 29, 2020 at 6:21:52 pm

Latest Report: Mar 29, 2020 at 5:54 pm


Visibility: 10 mi

Pressure: 29.69 "Hg

Humidity: 64%

Dew Point: 41 °F

Location of 43°11'25"N, 78°39'15"WLocation

Past Weather in 43°11'25"N, 78°39'15"W — Graph

°F

43°11'25"N, 78°39'15"W Temperature Yesterday

Maximum temperature yesterday: 51 °F (at 4:54 pm)
Minimum temperature yesterday: 41 °F (at 1:54 am)
Average temperature yesterday: 47 °F

High & Low Weather Summary for the Past Weeks

 TemperatureHumidityPressure
High72 °F (Mar 29, 1:54 pm)93% (Mar 17, 4:30 am)30.71 "Hg (Mar 17, 4:30 am)
Low22 °F (Mar 22, 5:54 am)26% (Mar 16, 10:54 am)29.48 "Hg (Mar 29, 1:54 pm)
Average42 °F70%30.15 "Hg
* Reported Mar 14 4:54 pm — Mar 29 4:54 pm, 43°11'25"N, 78°39'15"W. Weather by CustomWeather, © 2020

Note: Actual official high and low records may vary slightly from our data, if they occured in-between our weather recording intervals... More about our weather records

43°11'25"N, 78°39'15"W Weather History for the Previous 24 Hours

Scroll right to see more
 ConditionsComfort  
Time TempWeatherWind HumidityBarometerVisibility
4:54 pm
Sun, Mar 29
57 °FBroken clouds.24 mph60%29.63 "Hg10 mi
3:54 pm56 °FPartly sunny.20 mph81%29.59 "Hg10 mi
2:54 pm61 °FLight rain. Partly sunny.13 mph81%29.55 "Hg10 mi
2:23 pm59 °FThunderstorms. Broken clouds.16 mph87%29.54 "Hg10 mi
2:06 pm68 °FStrong thunderstorms. Broken clouds.44 mph65%29.54 "Hg1 mi
1:54 pm72 °FBroken clouds.23 mph61%29.48 "Hg10 mi
12:54 pm70 °FBroken clouds.22 mph66%29.53 "Hg10 mi
11:54 am69 °FBroken clouds.26 mph66%29.55 "Hg10 mi
10:54 am66 °FMostly cloudy.18 mph70%29.57 "Hg10 mi
9:54 am62 °FMore clouds than sun.9 mph78%29.60 "Hg10 mi
8:54 am59 °FMostly cloudy.10 mph81%29.63 "Hg10 mi
7:54 am57 °FMostly cloudy.9 mph87%29.66 "Hg10 mi
6:54 am53 °FMostly cloudy.7 mph93%29.67 "Hg10 mi
5:54 am49 °FLight rain. Mostly cloudy.9 mph93%29.72 "Hg9 mi
4:54 am48 °FLight rain. Overcast.6 mph93%29.77 "Hg10 mi
4:08 am48 °FLight rain. Overcast.7 mph89%29.79 "Hg8 mi
3:39 am49 °FLight rain. Mostly cloudy.7 mph86%29.79 "Hg10 mi
3:05 am49 °FOvercast.No wind90%29.80 "Hg10 mi
1:54 am48 °FLow clouds.9 mph86%29.83 "Hg10 mi
1:14 am48 °FLow clouds.8 mph86%29.84 "Hg10 mi
12:54 am48 °FOvercast.12 mph86%29.84 "Hg10 mi
11:54 pm
Sat, Mar 28
47 °FOvercast.9 mph90%29.86 "Hg10 mi
11:21 pm48 °FOvercast.10 mph89%29.84 "Hg10 mi
10:54 pm48 °FOvercast.9 mph89%29.87 "Hg10 mi
9:54 pm48 °FOvercast.10 mph89%29.88 "Hg10 mi
8:54 pm48 °FDrizzle. Overcast.9 mph89%29.88 "Hg7 mi
7:54 pm49 °FDrizzle. Overcast.8 mph86%29.88 "Hg10 mi
7:32 pm49 °FDrizzle. Overcast.9 mph86%29.86 "Hg10 mi
7:05 pm50 °FOvercast.9 mph83%29.86 "Hg10 mi
6:54 pm50 °FOvercast.9 mph83%29.87 "Hg10 mi
Weather by CustomWeather, © 2020

See weather overview

Advertising